Location: Dealu Mare
(46.0500°N, 22.8167°E)
Time: 21:48:01
(UTC+00:00)

FengYun 1-2 T - Pass Details

Date: 15 January 2026
Orbit: 844 x 880 km, 98.8° (Epoch: 10 February)

Event Time Altitude Azimuth Distance (km) Brightness Sun altitude
Rises 03:40:15 0° 11° (N) 3,461 7.5 -24.9°
Reaches altitude 10° 03:42:40 10° 8° (N) 2,514 6.7 -24.5°
Maximum altitude 03:48:09 61° 290° (WNW) 971 4.1 -23.5°
Enters shadow 03:49:54 41° 231° (SW) 1,214 4.7 -23.2°
